TimeCST,TemperatureF,Dew PointF,Humidity,Sea Level PressureIn,VisibilityMPH,Wind Direction,Wind SpeedMPH,Gust SpeedMPH,PrecipitationIn,Events,Conditions,WindDirDegrees,DateUTC
12:53 AM,19.0,15.1,85,29.84,10.0,SW,6.9,-,N/A,,Overcast,220,2013-01-19 06:53:00
1:53 AM,19.0,14.0,81,29.84,10.0,SW,4.6,-,N/A,,Overcast,220,2013-01-19 07:53:00
2:33 AM,19.4,15.8,86,29.78,10.0,Calm,Calm,-,N/A,,Overcast,0,2013-01-19 08:33:00
2:53 AM,19.9,16.0,85,29.82,10.0,Calm,Calm,-,N/A,,Overcast,0,2013-01-19 08:53:00
3:53 AM,19.9,16.0,85,29.80,10.0,Calm,Calm,-,N/A,,Overcast,0,2013-01-19 09:53:00
4:46 AM,19.4,15.8,86,29.72,6.0,Calm,Calm,-,0.00,Snow,Light Snow,0,2013-01-19 10:46:00
4:53 AM,19.9,17.1,89,29.77,7.0,Calm,Calm,-,0.00,Snow,Light Snow,0,2013-01-19 10:53:00
5:21 AM,19.4,15.8,86,29.71,10.0,Calm,Calm,-,0.00,,Overcast,0,2013-01-19 11:21:00
6:53 AM,21.0,17.1,85,29.74,10.0,WNW,4.6,-,N/A,,Overcast,300,2013-01-19 12:53:00
7:53 AM,19.9,17.1,89,29.71,8.0,South,4.6,-,N/A,,Overcast,190,2013-01-19 13:53:00
8:53 AM,23.0,19.0,85,29.69,8.0,South,4.6,-,N/A,,Overcast,170,2013-01-19 14:53:00
9:31 AM,24.8,19.4,80,29.63,7.0,SSW,4.6,-,N/A,,Scattered Clouds,210,2013-01-19 15:31:00
9:53 AM,26.1,21.0,81,29.66,7.0,SSW,6.9,-,N/A,,Clear,210,2013-01-19 15:53:00
10:53 AM,28.9,24.1,82,29.63,8.0,SW,8.1,-,N/A,,Mostly Cloudy,230,2013-01-19 16:53:00
11:15 AM,30.2,24.8,80,29.57,8.0,WSW,9.2,-,N/A,,Overcast,240,2013-01-19 17:15:00
11:53 AM,32.0,26.1,79,29.57,9.0,WSW,13.8,21.9,N/A,,Overcast,240,2013-01-19 17:53:00
12:24 PM,32.0,26.6,80,29.55,10.0,West,16.1,24.2,N/A,,Mostly Cloudy,260,2013-01-19 18:24:00
12:53 PM,32.0,25.0,75,29.59,10.0,West,13.8,25.3,N/A,,Overcast,270,2013-01-19 18:53:00
1:53 PM,32.0,24.1,73,29.58,10.0,West,16.1,31.1,N/A,,Overcast,270,2013-01-19 19:53:00
2:53 PM,32.0,23.0,69,29.58,10.0,West,12.7,24.2,N/A,,Overcast,280,2013-01-19 20:53:00
3:27 PM,26.6,19.4,74,29.57,1.8,NW,18.4,34.5,0.00,Snow,Light Snow,310,2013-01-19 21:27:00
3:53 PM,24.1,18.0,77,29.65,0.8,WNW,21.9,31.1,0.00,Snow,Light Snow,300,2013-01-19 21:53:00
4:17 PM,21.2,14.0,74,29.62,2.0,NW,19.6,32.2,0.00,Snow,Light Snow,310,2013-01-19 22:17:00
4:25 PM,21.2,12.2,68,29.62,3.0,WNW,25.3,36.8,0.00,Snow,Light Snow,300,2013-01-19 22:25:00
4:45 PM,19.4,10.4,68,29.65,1.8,NW,23.0,35.7,0.00,Snow,Light Snow,310,2013-01-19 22:45:00
4:53 PM,18.0,9.0,68,29.70,3.0,WNW,25.3,39.1,0.00,Snow,Light Snow,300,2013-01-19 22:53:00
5:16 PM,17.6,8.6,68,29.69,2.5,WNW,23.0,38.0,0.00,Snow,Light Snow,300,2013-01-19 23:16:00
5:25 PM,17.6,6.8,63,29.72,4.0,WNW,21.9,39.1,0.00,,Haze,300,2013-01-19 23:25:00
5:53 PM,15.1,3.9,61,29.80,10.0,WNW,20.7,32.2,0.00,,Overcast,300,2013-01-19 23:53:00
6:17 PM,12.2,5.0,73,29.77,2.0,WNW,19.6,36.8,0.00,Snow,Light Snow,300,2013-01-20 00:17:00
6:24 PM,12.2,3.2,67,29.78,3.0,NW,23.0,34.5,0.00,Snow,Light Snow,310,2013-01-20 00:24:00
6:34 PM,12.2,3.2,67,29.79,2.0,WNW,19.6,33.4,0.00,Snow,Light Snow,300,2013-01-20 00:34:00
6:53 PM,10.9,3.0,70,29.86,1.8,NW,24.2,32.2,0.00,Snow,Light Snow,310,2013-01-20 00:53:00
7:38 PM,8.6,3.2,79,29.86,0.5,NW,17.3,29.9,0.00,Snow,Snow,310,2013-01-20 01:38:00
7:49 PM,8.6,1.4,73,29.86,1.0,NW,20.7,31.1,0.00,Snow,Light Snow,320,2013-01-20 01:49:00
7:53 PM,8.1,-0.0,70,29.92,2.0,NW,16.1,31.1,0.00,Snow,Light Snow,320,2013-01-20 01:53:00
8:01 PM,8.6,-0.4,67,29.87,4.0,NW,20.7,32.2,0.00,,Haze,320,2013-01-20 02:01:00
8:11 PM,6.8,-0.4,72,29.88,2.0,NW,24.2,35.7,0.00,Snow,Light Snow,310,2013-01-20 02:11:00
8:24 PM,6.8,-0.4,72,29.90,4.0,NW,16.1,28.8,0.00,,Haze,320,2013-01-20 02:24:00
8:45 PM,6.8,-2.2,67,29.91,6.0,NW,15.0,28.8,0.00,,Haze,310,2013-01-20 02:45:00
8:53 PM,6.1,-0.9,73,29.98,2.5,NW,11.5,26.5,0.00,Snow,Light Snow,310,2013-01-20 02:53:00
9:01 PM,6.8,-0.4,72,29.93,1.2,NW,18.4,24.2,0.00,Snow,Light Snow,310,2013-01-20 03:01:00
9:51 PM,5.0,-0.4,78,29.97,2.0,NW,12.7,25.3,0.00,Snow,Light Snow,320,2013-01-20 03:51:00
9:53 PM,5.0,-0.9,76,30.03,2.0,NW,11.5,25.3,0.00,Snow,Light Snow,310,2013-01-20 03:53:00
10:03 PM,5.0,-0.4,78,29.99,1.8,NW,18.4,26.5,0.00,Snow,Light Snow,320,2013-01-20 04:03:00
10:15 PM,5.0,-0.4,78,29.99,2.0,NW,12.7,24.2,0.00,Snow,Light Snow,310,2013-01-20 04:15:00
10:23 PM,5.0,-0.4,78,30.00,1.8,WNW,17.3,24.2,0.00,Snow,Light Snow,300,2013-01-20 04:23:00
10:43 PM,5.0,-2.2,72,30.01,2.0,NW,16.1,27.6,0.00,Snow,Light Snow,310,2013-01-20 04:43:00
10:50 PM,5.0,-2.2,72,30.01,2.5,NW,18.4,25.3,0.00,Snow,Light Snow,310,2013-01-20 04:50:00
11:01 PM,3.2,-2.2,78,30.03,4.0,NW,16.1,27.6,0.00,Snow,Light Snow,310,2013-01-20 05:01:00
11:26 PM,3.2,-4.0,72,30.05,9.0,NW,15.0,24.2,0.00,,Overcast,310,2013-01-20 05:26:00
11:53 PM,3.0,-5.1,69,30.10,8.0,NW,19.6,27.6,0.00,,Overcast,310,2013-01-20 05:53:00